Syracuse, NY

7:38 PM EST on December 05, 2019 (GMT -0500)
Syracuse Hancock International

Weather History for KSYR - October, 2019

Change the Weather History Date:

Saturday, October 26, 2019

  Actual Average Record
Temperature  
Mean Temperature 48 °F 47 °F  
Max Temperature 55 °F 56 °F 78 °F (1963)
Min Temperature 39 °F 38 °F 24 °F (1976)
Degree Days  
Heating Degree Days 18 18  
Month to date heating degree days 327 359  
Since 1 July heating degree days 402 526  
Cooling Degree Days 0 0  
Month to date cooling degree days 11 0  
Year to date cooling degree days 622 565  
Moisture  
Dew Point 42 °F    
Average Humidity 84    
Maximum Humidity 100    
Minimum Humidity 61    
Precipitation  
Precipitation 0.05 in 0.11 in 1.51 in (1943)
Month to date precipitation 4.17 2.88  
Year to date precipitation 38.30 31.16  
Snow  
Snow 0.00 in 0.00 in 1.90 in (1962)
Month to date snowfall 0.0 0.2  
Since 1 July snowfall T 0.2  
Since 1 September snowfall T 0.2  
Snow Depth 0.00 in    
Sea Level Pressure  
Sea Level Pressure 30.21 in    
Wind  
Wind Speed 2 mph ()    
Max Wind Speed 10 mph    
Max Gust Speed 13 mph    
Visibility 4.7 miles    
Events Fog , Rain    
T = Trace of Precipitation, MM = Missing Value Source: Averaged Metar Reports

Daily Weather History Graph

Daily Weather History Graph

Search for Another Location

Airport or City:

Astronomy

Oct. 26, 2019 Rise Set
Actual Time 7:31 AM EDT 6:04 PM EDT
Civil Twilight 7:02 AM EDT 6:34 PM EDT
Nautical Twilight 6:28 AM EDT 7:07 PM EDT
Astronomical Twilight 5:55 AM EDT 7:40 PM EDT
Moon 5:18 AM EDT (10/26) 5:43 PM EDT (10/26)
Length of Visible Light 11h 32m
Length of Day
10h 33m
Waning Crescent, 3% of the Moon is Illuminated
Oct 26
Waning Crescent
Oct 27
New
Nov 4
First Quarter
Nov 12
Full
Nov 19
Last Quarter

Hourly Weather History & Observations

Time (EDT) Temp. Windchill Dew Point Humidity Pressure Visibility Wind Dir Wind Speed Gust Speed Precip Events Conditions
12:23 AM 46.0 °F 44.8 °F 45.0 °F 96% 30.21 in 1.8 mi West 3.5 mph - N/A   Mostly Cloudy
12:30 AM 45.0 °F 43.5 °F 44.1 °F 97% 30.21 in 0.5 mi West 3.5 mph - N/A Fog Fog
12:42 AM 44.1 °F - 42.1 °F 93% 30.21 in 0.5 mi Calm Calm - N/A Fog Fog
12:54 AM 44.1 °F 41.5 °F 41.0 °F 89% 30.21 in 0.2 mi West 4.6 mph - N/A Fog Fog
12:56 AM 44.1 °F 41.5 °F 42.1 °F 93% 30.21 in 0.2 mi West 4.6 mph - N/A Fog Fog
1:54 AM 46.9 °F - 45.0 °F 93% 30.20 in 4.0 mi Calm Calm - N/A   Mostly Cloudy
2:18 AM 45.0 °F - 43.0 °F 93% 30.21 in 1.2 mi Calm Calm - N/A   Overcast
2:29 AM 45.0 °F 43.5 °F 43.0 °F 93% 30.22 in 3.0 mi NNW 3.5 mph - N/A   Overcast
2:54 AM 46.0 °F - 44.1 °F 93% 30.20 in 1.8 mi Calm Calm - N/A   Overcast
3:14 AM 44.1 °F - 42.1 °F 93% 30.21 in 0.5 mi Calm Calm - N/A Fog Fog
3:31 AM 44.6 °F - 41.0 °F 87% 30.21 in 0.2 mi Calm Calm - N/A Fog Fog
3:33 AM 44.1 °F - 42.1 °F 93% 30.21 in 0.2 mi Calm Calm - N/A Fog Fog
3:54 AM 42.1 °F - 41.0 °F 96% 30.20 in 0.2 mi Calm Calm - N/A Fog Fog
4:01 AM 41.0 °F - 41.0 °F 100% 30.21 in 0.2 mi Calm Calm - N/A Fog Fog
4:22 AM 42.1 °F - 39.9 °F 92% 30.21 in 0.2 mi Calm Calm - N/A Fog Fog
4:24 AM 42.1 °F - 39.9 °F 92% 30.21 in 0.2 mi Calm Calm - N/A Fog Fog
4:54 AM 42.1 °F - 39.9 °F 92% 30.22 in 0.2 mi Calm Calm - N/A Fog Fog
5:35 AM 42.1 °F - 39.9 °F 92% 30.23 in 0.2 mi Calm Calm - N/A Fog Fog
5:54 AM 41.0 °F - 39.0 °F 93% 30.24 in 0.2 mi Calm Calm - N/A Fog Fog
5:58 AM 41.0 °F - 39.0 °F 93% 30.24 in 0.5 mi Calm Calm - N/A Fog Fog
6:32 AM 41.0 °F - 39.0 °F 93% 30.25 in 1.2 mi Calm Calm - N/A   Mostly Cloudy
6:54 AM 41.0 °F - 39.0 °F 93% 30.25 in 0.5 mi Calm Calm - N/A Fog Fog
7:54 AM 41.0 °F 39.0 °F 39.9 °F 96% 30.25 in 2.5 mi ESE 3.5 mph - N/A   Mostly Cloudy
8:02 AM 41.0 °F - 39.9 °F 96% 30.26 in 3.0 mi Calm Calm - N/A   Mostly Cloudy
8:54 AM 45.0 °F - 43.0 °F 93% 30.27 in 5.0 mi Calm Calm - N/A   Mostly Cloudy
9:43 AM 46.9 °F - 44.1 °F 90% 30.27 in 8.0 mi Calm Calm - N/A   Mostly Cloudy
9:54 AM 48.0 °F - 44.1 °F 86% 30.27 in 9.0 mi SSW 4.6 mph - N/A   Mostly Cloudy
10:22 AM 48.9 °F - 45.0 °F 86% 30.28 in 9.0 mi SW 3.5 mph - N/A   Mostly Cloudy
10:54 AM 52.0 °F - 45.0 °F 77% 30.27 in 10.0 mi West 3.5 mph - N/A   Mostly Cloudy
11:54 AM 53.1 °F - 44.1 °F 71% 30.27 in 10.0 mi East 4.6 mph - N/A   Mostly Cloudy
12:54 PM 53.1 °F - 44.1 °F 71% 30.25 in 10.0 mi East 6.9 mph - N/A   Mostly Cloudy
1:54 PM 55.0 °F - 43.0 °F 64% 30.23 in 10.0 mi ENE 5.8 mph - N/A   Mostly Cloudy
2:54 PM 55.0 °F - 42.1 °F 62% 30.22 in 10.0 mi ESE 5.8 mph - N/A   Mostly Cloudy
3:54 PM 55.0 °F - 42.1 °F 62% 30.20 in 10.0 mi East 4.6 mph - N/A   Mostly Cloudy
4:54 PM 54.0 °F - 42.1 °F 64% 30.18 in 10.0 mi North - - N/A   Mostly Cloudy
4:59 PM 54.0 °F - 41.0 °F 62% 30.18 in 10.0 mi East 6.9 mph - N/A   Mostly Cloudy
5:54 PM 52.0 °F - 41.0 °F 66% 30.17 in 10.0 mi East 6.9 mph - N/A   Mostly Cloudy
6:54 PM 50.0 °F - 39.9 °F 68% 30.17 in 10.0 mi East 5.8 mph - N/A   Mostly Cloudy
7:54 PM 50.0 °F - 39.9 °F 68% 30.16 in 10.0 mi East 6.9 mph - N/A   Mostly Cloudy
8:54 PM 48.9 °F - 39.9 °F 71% 30.15 in 10.0 mi East 6.9 mph - N/A   Mostly Cloudy
9:54 PM 50.0 °F - 39.9 °F 68% 30.14 in 10.0 mi ESE 8.1 mph - 0.00 in Rain Light Rain
10:54 PM 48.9 °F - 42.1 °F 77% 30.13 in 10.0 mi ESE 10.4 mph - 0.00 in Rain Light Rain
11:54 PM 48.9 °F - 43.0 °F 80% 30.10 in 10.0 mi East 10.4 mph - 0.01 in Rain Light Rain